This is the latest recevied weather packets stored in our database for station/object DH6SC. If no packets are shown the sender has not sent any weather packets the latest 10 day(s).
| Time | Temp. | Humidity | Pressure | Rain* | Wind** | Luminosity | Snow |
|---|---|---|---|---|---|---|---|
| 1777780186 | 21.11° C | 62% | 1018 hPa | - | - | - | - |
| 1777776600 | 21.11° C | 62% | 1018.1 hPa | - | - | - | - |
| 1777773596 | 21.11° C | 62% | 1018 hPa | - | - | - | - |
| 1777773001 | 21.11° C | 62% | 1018 hPa | - | - | - | - |
| 1777760977 | 22.22° C | 62% | 1018.8 hPa | - | - | - | - |
| 1777760382 | 22.22° C | 62% | 1018.8 hPa | - | - | - | - |
| 1777754387 | 22.78° C | 62% | 1018.9 hPa | - | - | - | - |
| 1777745401 | 22.78° C | 61% | 1018.7 hPa | - | - | - | - |
| 1777728601 | 21.11° C | 60% | 1021.7 hPa | - | - | - | - |
| 1777726196 | 21.11° C | 60% | 1022.2 hPa | - | - | - | - |
| 1777725601 | 21.11° C | 60% | 1022.4 hPa | - | - | - | - |
| 1777723205 | 20.56° C | 60% | 1022.9 hPa | - | - | - | - |
| 1777713601 | 19.44° C | 61% | 1024.8 hPa | - | - | - | - |
| 1777711797 | 19.44° C | 61% | 1024.9 hPa | - | - | - | - |
| 1777711201 | 19.44° C | 61% | 1025 hPa | - | - | - | - |
| 1777708786 | 19.44° C | 61% | 1025.2 hPa | - | - | - | - |
| 1777707002 | 18.89° C | 62% | 1025.4 hPa | - | - | - | - |
| 1777702782 | 18.89° C | 62% | 1025.7 hPa | - | - | - | - |
| 1777697998 | 19.44° C | 62% | 1025.6 hPa | - | - | - | - |
| 1777693801 | 19.44° C | 62% | 1025.3 hPa | - | - | - | - |
| 1777690796 | 19.44° C | 62% | 1025.7 hPa | - | - | - | - |
| 1777689598 | 19.44° C | 62% | 1025.7 hPa | - | - | - | - |
| 1777689001 | 19.44° C | 62% | 1025.6 hPa | - | - | - | - |
| 1777681200 | 20° C | 62% | 1026.1 hPa | - | - | - | - |
| 1777679402 | 20° C | 62% | 1026.3 hPa | - | - | - | - |
* Rain since midnight (hover to see other rain measurements)
** Current wind speed in m/s (hover to see current wind gust speed)